Location: Barrio Las Umbrías
(40.4173°N, 4.8685°W)
Time: 13:29:18
(UTC+00:00)

Cosmos 1833 Rocket - Pass Details

Date: 17 August 2022
Orbit: 831 x 841 km, 71.0° (Epoch: 27 September)

Event Time Altitude Azimuth Distance (km) Brightness Sun altitude
Rises 22:52:54 0° 330° (NNW) 3,402 7.0 -32.4°
Reaches altitude 10° 22:55:26 10° 324° (NW) 2,464 5.9 -32.6°
Enters shadow 22:59:34 39° 287° (WNW) 1,243 3.7 -33.0°
